Погода в Приозерном

Россия / Ставропольский край     45°01′02″N   41°39′43″E
темп.,
°C
ветер,
м/с
пор.,
м/с
влажн.,
%
обл.,
%
осадки,
мм/ч
давл.,
гПа
погр.,
м
16 апреля, пт
пт1600:00+9всв119012 0.4 101910
03:00+8юв228990 0.4 101923
06:00+9юв2291100 0.0 101935
09:00+15вюв2465100 0.0 1018582
12:00+18вюв55485 0.0 10171529
15:00+20вюв444163 0.0 10162183
18:00+11св1192100 4.7 1019149
21:00+9св2297100 4.8 102029
17 апреля, сб
сб1700:00+9в2396100 0.1 101882
03:00+9ссз2299100 0.5 101983
06:00+10зсз3996100 1.8 1020608
09:00+9зсз4994100 4.3 1022483
12:00+9зсз3591100 2.0 1023392
15:00+8сз3496100 4.3 1023324
18:00+8ююз0195100 2.1 102484
21:00+8ююв1191100 2.2 102331
18 апреля, вс
вс1800:00+8юв119086 0.0 102221
03:00+8всв229193 0.0 102127
06:00+8в3792100 0.0 1020256
09:00+10в598698 0.5 1019531
12:00+14вюв7976100 0.0 1016846
15:00+14вюв4684100 2.8 1016570
18:00+13вюв369075 1.5 1017297
21:00+11вюв119363 1.6 101814
19 апреля, пн
пн1900:00+10юв3393100 0.0 101736
03:00+11юв2290100 0.1 101622
06:00+11юв3388100 0.0 101641
09:00+14ююз1281100 0.3 1017178
12:00+14вюв2386100 1.3 1015149
15:00+18вюв3673100 1.3 1013587
18:00+18вюв6127073 0.0 1011449
21:00+16вюв61671100 0.0 1010416
20 апреля, вт
вт2000:00+14юв61674100 0.0 1007323
03:00+14юв51174100 0.0 1005231
06:00+13юв51372100 0.0 1003215
09:00+16зюз2370100 0.1 1005259
12:00+17с3375100 0.4 1007622
15:00+15зсз9977100 0.7 1010888
18:00+10зсз61486100 3.1 1014988
21:00+9зюз1588100 6.1 1016282